Weather in Voskresenskoye

Russia / Ivanovo Oblast     56°41′58″N   40°57′56″E
temp.,
°C
wind,
m/s
gust,
m/s
humid.,
%
clouds,
%
prec.,
mm/h
press.,
hPa
HPBL,
m
22 september, wed
wed2200:00+5ene51289100 2.2 1015718
03:00+5ene51294100 5.0 1014771
06:00+5ene51295100 5.4 1013736
09:00+5ene51196100 9.3 1013749
12:00+6e41093100 0.5 1013728
15:00+6e41096100 1.4 1014621
18:00+6e3997100 0.1 1015435
21:00+7e269898 0.1 1016245
23 september, thu
thu2300:00+6ene259727 0.0 1016162
03:00+6ene3799100 0.0 1016261
06:00+7e3897100 0.0 1016398
09:00+8ese4991100 0.0 1016587
12:00+10e4990100 0.0 1014682
15:00+9ese3797100 1.6 1013522
18:00+9se279887 0.4 1012284
21:00+8s2399100 0.4 101284
24 september, fri
fri2400:00+7sse2598100 0.1 1011154
03:00+8se2697100 0.2 1010257
06:00+8sse389756 0.1 1009361
09:00+8sse3991100 0.1 1009546
12:00+11s51069100 0.2 10081438
15:00+11sse487099 0.3 10081233
18:00+9se3980100 0.2 1007478
21:00+9se31185100 0.4 1008497
25 september, sat
sat2500:00+8se279275 0.0 1008222
03:00+8ese2691100 0.1 1004210
06:00+6se269260 0.0 1008129
09:00+10sse257365 0.0 1008276
12:00+14s235015 0.0 10081388
15:00+13sw2255100 0.0 1008427
18:00+10w1169100 0.0 100918
21:00+9w1275100 0.0 100932
26 september, sun
sun2600:00+9wsw1182100 0.0 100925
03:00+8se119298 1.1 101020
06:00+6s119529 0.0 101010
09:00+10ssw118359 0.1 1010227
12:00+11e1176100 1.3 1011334
15:00+11nne2378100 1.8 1012329
18:00+9nne278998 0.6 1014200
21:00+8ne2697100 0.8 1016173